Temperature
15 15 16 16 18 19 19 19 19 18 18 17 16 17 19 19 18 17 13 13 13 13 13 13 13 13 13 13 14 14 14 14 14 14 14 14 14 14 14 14 14 14 14 14 14 15 15 15 15
14 15 15 17 19 19 19 19 18 18 17 15 15 16 17 16 13 13 13 13 13 13 13 13 13 13 13 13 13 13 13 14 14 14 13 13 14 14 14 14 14 14 14 14 14 14 15 15 15
14 15 16 18 18 19 19 19 18 16 15 15 15 14 15 14 12 12 12 13 13 12 12 12 12 12 13 13 13 13 13 13 13 13 13 13 13 13 13 13 14 14 14 14 14 14 14 14 14
14 14 16 17 18 18 19 18 17 16 14 14 15 14 12 11 11 12 12 12 12 12 12 12 12 12 12 12 12 13 13 13 13 13 13 13 13 13 13 13 13 13 13 13 14 14 14 14 14
14 15 17 17 17 17 17 16 15 17 16 14 15 15 13 11 12 12 12 12 12 12 12 12 12 12 12 12 12 12 12 12 12 12 12 12 12 13 13 13 13 13 13 13 13 13 14 14 14
14 16 17 17 17 16 16 14 15 16 15 14 14 14 12 11 11 12 11 11 11 11 11 11 12 12 12 12 12 12 12 12 12 12 12 12 12 12 12 12 12 13 13 13 13 13 13 13 13
15 16 16 17 16 16 15 14 15 16 15 13 13 14 11 11 11 11 11 11 11 11 11 11 11 11 11 11 11 11 11 11 11 12 12 12 12 12 12 12 12 12 12 12 12 13 13 13 13
13 15 15 16 16 16 14 13 13 14 14 11 11 14 12 10 11 11 10 11 11 10 11 11 11 11 11 11 11 11 11 11 11 11 11 11 11 11 11 11 12 12 12 12 12 12 12 12 12
12 15 15 15 15 15 13 13 11 10 11 10 9 10 9 10 10 10 10 10 10 10 10 10 10 10 10 10 10 10 10 10 10 10 10 11 11 11 11 11 11 11 11 12 12 12 12 12 12
13 14 14 14 14 14 12 12 11 11 11 10 9 9 9 9 9 10 10 10 10 10 10 10 10 10 10 10 10 10 10 10 10 10 10 10 10 10 10 10 11 11 11 11 11 11 11 11 11
12 13 12 12 11 11 11 11 10 12 12 11 10 9 9 9 9 9 9 9 9 9 9 9 9 9 9 9 9 9 9 9 9 9 9 9 10 10 10 10 10 10 10 11 11 11 11 11 11
11 10 10 10 9 10 10 10 9 9 10 8 8 8 8 8 9 9 9 9 9 9 9 9 9 9 9 9 9 9 9 9 9 9 9 9 9 9 9 9 10 10 10 10 10 10 10 10 10
10 10 8 8 8 8 9 9 8 8 7 7 7 7 8 8 8 8 8 8 8 8 8 8 8 8 8 8 8 8 8 8 8 8 8 8 8 9 9 9 9 9 9 9 10 10 10 10 10
10 9 8 8 8 8 9 8 8 7 6 6 7 7 7 7 7 7 7 8 8 8 8 8 8 8 8 8 8 8 8 8 7 7 8 8 8 8 8 8 8 8 9 9 9 9 9 9 9
8 9 9 9 8 8 9 9 8 6 6 6 6 6 6 6 6 7 7 7 7 7 7 7 7 7 7 7 7 7 7 7 7 7 7 7 7 7 7 8 8 8 8 8 8 8 8 9 9
9 10 11 9 8 8 9 11 9 6 5 6 5 5 4 5 5 5 6 6 6 7 7 7 7 7 7 7 7 6 6 6 6 6 6 7 7 7 7 7 7 7 7 7 7 8 8 8 8
10 11 11 10 8 8 9 10 8 5 5 5 5 4 3 4 4 4 5 5 6 6 6 6 6 6 6 6 6 6 6 6 6 6 6 6 6 6 6 6 6 6 6 7 7 7 7 7 7
10 10 10 10 8 8 8 8 7 5 5 5 4 3 3 3 3 4 4 4 5 5 5 5 5 5 5 5 5 5 5 5 5 5 5 6 6 6 6 6 6 6 6 6 6 6 6 6 7
9 9 10 9 7 7 8 8 7 5 4 4 3 3 2 2 2 3 3 3 4 4 4 4 5 5 5 5 5 5 5 5 5 5 5 5 5 5 5 5 5 5 5 5 5 5 6 6 6
8 8 9 8 6 7 7 7 7 5 4 3 3 2 2 1 2 2 2 3 3 3 3 4 4 4 4 4 4 4 4 4 4 4 4 5 5 4 4 4 5 5 5 5 5 5 5 5 5
7 7 8 7 6 6 6 8 6 5 3 2 2 1 1 0 1 1 2 2 2 2 3 3 3 3 3 3 3 3 3 3 3 3 4 4 4 4 4 4 4 4 4 4 4 4 4 5 5
7 6 6 5 6 7 6 8 8 5 4 3 2 1 0 -0 -0 0 1 1 2 2 2 2 2 2 2 2 3 3 3 3 3 3 3 3 3 3 3 3 3 4 4 4 4 4 4 4 4
6 5 5 5 5 5 5 6 8 4 4 3 2 1 -0 -1 -1 -0 0 1 1 1 2 2 2 2 2 2 2 2 2 2 2 2 2 2 2 2 2 3 3 3 3 3 3 3 3 3 3
4 4 4 5 5 5 5 6 8 5 4 4 3 1 -1 -1 -1 -1 -0 -0 0 0 1 1 1 1 1 1 1 1 1 1 1 1 1 1 1 2 2 2 2 2 2 2 2 3 3 3 3
4 5 6 6 6 7 4 4 6 5 3 2 1 0 -1 -1 -1 -1 -1 -1 -1 -0 0 0 0 0 1 0 0 0 0 0 0 0 1 1 1 1 1 1 1 1 2 2 2 2 2 2 2
4 5 6 7 7 7 3 4 5 2 0 -1 -1 -1 -2 -2 -2 -2 -2 -2 -2 -1 -1 -1 -0 -0 -0 -0 -0 -0 -1 -1 -0 -0 -0 -0 0 0 0 0 1 1 1 1 1 1 1 1 2
4 4 4 5 4 4 5 4 4 1 0 -1 -1 -2 -2 -2 -2 -2 -2 -2 -2 -2 -2 -2 -1 -1 -1 -1 -1 -1 -1 -1 -1 -1 -1 -1 -1 -1 -0 -0 -0 0 0 0 0 0 1 1 1
3 3 3 4 5 6 6 5 5 3 1 0 -1 -1 -2 -3 -3 -3 -3 -3 -2 -2 -2 -2 -2 -2 -2 -2 -2 -2 -2 -2 -2 -2 -1 -1 -1 -1 -1 -1 -1 -0 -0 -0 -0 -0 -0 0 0
1 2 3 4 4 5 6 6 4 3 1 1 -0 -2 -3 -3 -3 -3 -3 -3 -3 -3 -3 -3 -3 -3 -3 -3 -3 -2 -2 -3 -2 -2 -2 -2 -2 -2 -1 -1 -1 -1 -1 -1 -1 -1 -1 -1 -1
1 2 2 3 3 3 4 5 1 0 -1 -1 -2 -3 -3 -3 -4 -4 -4 -4 -4 -4 -4 -4 -4 -4 -4 -3 -3 -3 -3 -3 -3 -3 -3 -3 -2 -2 -2 -2 -2 -2 -2 -1 -1 -1 -1 -1 -1
Wind_Speed
3 2 1 3 4 4 9 6 5 5 5 3 3 3 3 2 1 2 3 2 2 3 4 4 5 8 9 10 11 11 11 11 11 11 11 11 12 12 12 12 12 12 12 13 13 13 14 14 14
1 1 2 3 6 9 8 7 8 6 4 5 3 2 3 2 2 2 2 2 2 4 5 5 7 9 10 10 10 10 10 11 11 11 10 11 11 12 12 13 12 12 12 12 12 13 13 13 13
1 1 3 4 7 10 7 6 6 5 4 4 4 1 1 1 2 2 2 2 4 5 5 6 8 9 10 10 10 10 10 11 11 11 11 11 11 11 12 12 12 12 12 12 12 12 12 13 13
3 3 2 6 11 9 6 4 5 7 5 3 4 3 2 2 1 2 3 4 5 5 5 7 9 9 10 10 10 10 11 11 11 11 12 12 12 12 11 12 12 11 11 11 11 11 11 12 12
2 3 5 8 11 7 4 3 5 6 5 4 5 3 3 2 2 3 4 5 6 5 5 7 8 10 10 10 10 10 10 10 11 11 12 12 12 12 12 11 12 11 11 11 11 11 11 11 11
4 4 7 11 11 6 5 4 5 6 5 4 4 4 2 3 3 2 4 5 5 6 5 7 8 10 10 11 11 10 10 10 11 11 11 11 11 12 12 11 11 11 10 10 10 11 10 10 10
5 5 8 10 9 8 5 4 6 6 6 4 3 4 3 2 2 3 5 5 6 6 6 6 7 8 10 11 11 10 10 10 10 11 11 11 11 11 11 11 11 11 11 10 10 9 9 9 9
2 4 7 9 9 8 4 4 2 4 4 1 2 3 3 3 3 5 6 5 5 5 5 5 6 7 7 8 10 10 10 10 11 11 11 11 11 11 10 9 10 10 10 10 10 10 9 8 9
3 6 9 9 8 5 5 4 2 1 3 1 1 1 2 5 5 6 6 5 4 4 4 4 5 6 6 7 8 9 10 10 10 10 11 9 8 8 8 9 10 10 10 9 9 9 8 7 8
4 8 9 4 4 3 4 4 3 4 3 3 2 2 3 5 6 6 6 5 3 2 2 3 4 5 6 6 6 6 7 7 7 7 7 6 6 7 7 9 10 10 9 9 9 8 7 4 5
4 6 5 3 2 2 3 3 3 5 4 4 4 3 4 5 5 5 5 4 4 3 2 2 3 4 4 4 5 5 5 6 6 6 6 5 6 5 5 5 7 7 6 6 5 4 4 4 3
3 3 3 2 1 2 3 3 2 4 3 1 2 4 5 5 6 6 5 4 3 3 2 2 2 3 3 4 4 5 4 4 5 5 5 4 4 4 4 4 4 3 3 3 3 2 3 4 3
6 3 2 1 1 1 2 2 2 4 3 0 3 4 5 5 5 4 4 3 3 3 3 2 2 2 3 4 4 4 4 4 5 5 4 4 4 3 3 3 3 2 3 2 2 2 2 3 3
4 4 2 2 3 3 3 4 3 4 2 2 3 4 4 4 3 3 2 2 2 2 2 2 2 2 3 3 3 3 4 4 4 4 4 3 3 3 3 3 3 2 2 2 1 2 2 2 2
3 3 4 3 3 3 3 6 6 4 3 3 3 3 3 2 2 2 2 2 2 2 1 2 2 2 2 3 4 3 3 4 3 3 3 3 3 3 3 2 2 2 1 2 2 2 2 2 2
3 5 6 4 3 3 6 9 4 3 4 3 3 2 2 1 1 1 1 1 1 1 1 2 1 2 2 2 3 3 3 3 3 3 2 3 3 3 2 2 1 1 1 1 1 1 1 1 1
4 6 7 4 3 3 7 8 3 3 4 5 4 3 2 1 1 1 1 1 1 1 1 1 2 1 1 2 2 3 3 3 2 2 2 2 2 2 2 2 1 1 1 1 1 1 1 1 1
6 7 7 7 2 4 7 9 5 3 5 5 4 3 2 1 1 1 1 1 1 1 1 1 2 1 1 1 2 2 2 2 2 2 1 2 1 1 2 2 1 1 1 1 1 2 1 1 1
5 7 8 6 2 5 9 10 8 5 4 4 3 3 2 2 1 1 1 1 1 1 1 1 1 1 1 1 1 1 2 1 1 1 1 1 1 1 1 1 1 0 1 1 2 2 3 2 2
6 7 8 4 1 3 6 10 8 5 4 3 3 3 2 1 0 0 1 1 1 1 1 1 1 1 1 0 0 0 1 1 1 1 1 1 1 1 1 1 1 1 1 1 2 2 2 1 1
7 9 8 5 3 3 4 8 6 4 4 3 2 2 1 2 1 1 0 1 1 1 2 2 1 1 1 0 1 1 1 1 1 1 1 1 1 1 1 1 2 2 2 2 2 3 3 2 2
7 6 6 6 5 4 3 7 6 5 5 4 4 3 2 1 1 1 1 1 1 1 1 2 1 1 1 1 1 1 1 1 1 1 1 1 1 1 1 2 2 2 2 3 3 3 3 4 3
4 2 4 5 5 5 5 6 5 3 5 6 5 4 3 2 1 1 1 2 1 1 1 1 2 1 1 1 1 1 2 1 1 1 1 1 1 1 2 2 2 2 2 3 3 3 4 4 4
1 1 1 3 4 6 7 7 6 5 5 5 5 4 3 2 2 1 1 1 1 1 1 1 1 1 1 1 1 2 2 2 1 1 1 1 1 1 2 2 2 3 2 3 3 3 4 4 5
3 3 2 3 5 6 4 6 7 3 2 3 3 3 3 2 2 1 1 1 1 1 1 1 1 1 1 2 2 2 3 2 2 2 2 2 2 2 2 2 3 3 3 4 4 3 4 5 5
5 5 4 4 5 4 3 7 4 1 1 1 1 2 2 2 2 2 2 1 1 1 1 1 1 1 2 2 2 2 2 2 2 2 2 3 3 3 3 4 4 4 4 4 4 4 4 4 5
3 4 2 2 2 5 5 5 5 3 3 2 2 2 2 2 2 2 2 1 1 2 2 2 2 2 2 2 2 2 2 3 3 3 3 3 3 3 4 4 4 4 4 4 4 4 5 4 5
2 3 3 4 4 6 6 6 5 5 5 4 3 3 3 2 2 2 2 1 2 2 2 2 2 2 2 2 2 2 3 3 3 3 4 4 4 3 4 4 4 4 5 5 5 5 5 5 5
3 4 4 4 3 5 6 5 1 3 3 4 4 3 2 2 2 2 2 1 2 2 2 2 2 2 2 2 2 3 3 3 3 3 4 4 4 4 4 4 4 4 5 5 5 5 5 6 6
4 5 6 5 5 4 5 5 2 2 2 2 3 2 2 2 2 2 1 1 1 2 2 2 2 2 3 3 3 3 3 3 3 3 4 4 4 4 4 4 5 5 5 5 6 6 7 7 8
Wind_Direction
335 327 224 203 199 213 226 212 200 180 184 171 147 166 177 174 181 99 67 106 104 133 135 121 93 97 92 88 87 86 86 87 90 92 92 91 89 87 87 86 86 90 95 96 93 93 91 89 87
317 235 193 204 220 219 220 211 203 196 160 146 150 170 168 163 42 75 101 106 124 128 125 118 100 99 95 91 89 86 87 86 87 90 92 91 89 88 87 82 81 83 89 96 94 93 92 90 89
186 217 196 195 220 225 213 192 196 169 150 167 158 154 180 126 106 108 79 133 133 122 117 109 102 100 99 94 92 89 87 87 86 86 88 88 87 86 85 83 81 81 83 91 95 95 94 92 91
187 168 195 218 220 226 229 189 165 165 170 184 169 143 132 52 60 73 116 138 130 118 111 107 102 101 99 96 93 92 90 88 87 87 86 86 86 86 84 83 83 82 83 86 93 97 95 93 93
191 186 199 218 227 224 227 217 181 185 177 176 186 171 145 92 57 90 133 134 131 119 108 107 102 102 100 98 95 93 93 91 89 87 86 86 86 84 82 81 82 81 82 85 88 96 98 96 95
178 198 213 221 222 218 218 209 196 201 187 173 180 180 155 98 88 110 128 129 123 117 111 109 101 101 99 95 92 93 94 93 91 90 86 85 85 83 81 82 82 80 81 84 86 88 94 97 96
203 206 224 224 223 224 214 197 209 205 200 198 205 181 161 142 87 122 128 122 117 113 107 102 108 103 96 92 89 90 89 88 87 90 88 85 83 81 79 79 79 77 75 77 79 82 86 90 93
221 206 224 225 223 225 193 184 210 223 207 165 215 191 164 149 131 130 123 116 109 96 93 96 102 106 103 95 88 86 84 85 86 84 85 85 83 82 80 79 78 77 74 74 76 74 76 85 90
207 218 226 222 222 213 172 182 164 130 156 156 139 42 72 126 139 132 122 111 105 95 84 88 94 97 102 102 98 93 87 81 83 83 84 86 87 88 84 76 76 75 72 71 73 73 73 81 91
204 223 230 227 225 201 177 194 171 172 183 192 170 108 111 134 144 145 144 144 135 118 89 77 93 93 98 101 105 101 94 88 81 82 87 83 83 78 78 76 75 72 70 70 68 69 74 84 103
204 227 226 222 210 201 193 200 197 197 217 224 212 183 147 150 157 163 165 162 158 147 115 68 74 95 100 99 97 92 92 91 85 79 81 84 83 82 78 77 76 75 72 70 68 70 68 68 91
195 236 238 227 206 209 205 185 199 237 251 326 201 159 159 169 179 183 180 172 159 147 131 95 76 85 103 102 97 97 91 90 84 83 83 87 80 79 76 74 72 74 70 69 67 66 72 71 76
213 215 222 217 169 193 188 207 227 248 260 94 139 154 172 182 194 191 185 172 163 158 152 129 101 91 95 104 96 94 93 92 94 88 79 86 89 88 81 74 68 63 72 79 81 88 89 87 72
198 194 208 242 224 228 210 238 232 243 212 167 157 165 174 182 189 183 180 181 180 173 167 154 133 111 104 104 106 102 100 98 95 91 82 84 90 94 92 83 68 56 65 75 99 104 102 94 82
177 198 224 233 226 215 211 243 230 229 192 177 172 171 167 178 174 195 206 204 196 187 169 157 141 126 123 121 122 111 108 110 99 93 91 84 86 104 104 90 77 53 60 91 101 107 103 99 93
194 214 226 213 215 210 221 245 213 189 193 207 204 193 183 181 191 225 235 223 202 176 159 150 115 127 120 112 129 122 115 112 104 102 96 84 85 96 104 103 91 74 87 104 117 138 132 126 129
205 229 236 229 209 214 224 250 238 216 213 225 223 210 208 219 285 289 265 230 196 172 147 131 115 112 103 112 119 127 123 114 108 106 103 97 87 88 89 88 85 122 111 114 131 158 156 152 145
222 233 237 236 226 228 234 249 254 243 231 235 225 210 210 235 286 309 292 230 174 146 133 119 109 94 87 109 115 118 120 114 116 121 120 121 102 94 90 90 85 100 134 141 160 156 136 153 157
238 236 246 252 253 237 243 255 256 253 232 220 215 218 219 234 281 359 57 96 128 123 129 121 101 78 89 121 142 167 165 144 138 144 141 140 134 137 111 98 117 119 178 184 172 160 151 134 157
232 241 253 263 257 245 261 265 257 232 217 210 215 221 229 233 265 41 72 100 138 156 165 159 152 142 121 141 163 221 176 157 149 139 137 154 165 187 202 161 182 193 202 188 182 175 174 158 201
239 242 249 251 284 242 279 264 226 208 199 211 227 237 233 225 229 212 167 164 162 190 202 200 190 176 166 82 85 117 111 102 126 176 204 220 202 189 214 226 215 211 206 209 209 204 201 195 212
246 250 248 243 247 255 251 269 238 218 214 223 230 229 232 244 250 234 213 223 226 233 227 212 194 184 171 148 130 172 186 218 234 220 224 227 222 219 237 230 223 233 229 223 223 220 219 212 212
241 271 245 238 235 254 234 247 251 193 230 233 231 230 230 228 238 255 257 252 258 264 250 223 199 188 187 183 186 225 236 244 230 200 207 218 242 230 238 238 223 225 238 241 234 226 223 222 225
189 199 199 208 221 240 223 227 255 215 226 229 219 218 222 228 243 277 312 328 337 342 304 257 213 209 206 208 217 238 251 234 215 225 234 230 254 253 245 240 236 231 233 244 246 237 229 227 229
188 203 224 218 220 238 189 225 250 240 226 236 224 213 210 212 230 275 316 321 336 351 345 319 274 258 255 242 235 244 254 243 233 235 237 246 241 256 256 242 241 240 237 240 243 241 239 230 225
207 217 231 247 245 252 201 233 245 203 172 236 235 216 201 212 236 257 274 291 302 318 328 315 294 290 285 270 263 255 256 254 257 259 251 242 248 254 257 246 246 245 239 235 235 237 240 236 228
198 217 263 256 271 264 244 250 265 212 200 194 198 201 221 243 262 266 263 289 301 305 315 310 291 291 304 309 314 291 275 265 265 266 260 256 254 259 252 248 245 246 241 236 235 236 234 232 232
275 178 180 208 237 253 248 241 234 208 210 205 217 229 239 262 274 277 272 286 304 310 310 306 298 299 303 306 305 294 288 288 281 263 261 265 263 255 250 249 248 249 246 237 232 237 234 230 232
186 193 213 217 249 248 256 252 217 209 199 208 226 232 240 257 261 264 268 288 320 337 330 314 305 305 307 304 295 291 291 289 285 277 271 271 271 260 253 252 253 250 251 245 239 238 237 231 232
238 221 201 219 228 235 259 268 81 198 218 227 238 242 255 262 259 252 262 285 316 327 333 322 307 300 300 300 296 291 292 290 285 285 287 285 278 272 261 257 254 253 252 250 244 243 241 237 235
Height
1516 1518 1520 1523 1523 1520 1517 1516 1518 1520 1523 1526 1526 1527 1526 1527 1529 1535 1535 1533 1534 1536 1538 1539 1541 1542 1543 1544 1544 1545 1545 1546 1547 1547 1548 1548 1548 1549 1549 1549 1549 1550 1550 1550 1550 1550 1550 1550 1550
1517 1518 1522 1522 1517 1517 1516 1515 1518 1519 1523 1526 1527 1528 1528 1530 1532 1533 1532 1533 1534 1536 1538 1539 1541 1542 1543 1544 1544 1545 1546 1546 1547 1547 1548 1549 1549 1549 1550 1550 1550 1550 1551 1551 1551 1551 1551 1551 1551
1517 1519 1522 1518 1515 1511 1511 1514 1517 1522 1525 1526 1527 1529 1530 1531 1531 1531 1532 1533 1535 1537 1538 1540 1541 1542 1543 1544 1545 1545 1546 1547 1547 1548 1548 1549 1549 1550 1550 1550 1551 1551 1551 1552 1552 1552 1552 1552 1552
1517 1520 1521 1517 1513 1512 1512 1515 1519 1522 1525 1526 1527 1529 1530 1531 1531 1531 1532 1533 1535 1537 1538 1540 1541 1542 1543 1544 1545 1545 1546 1547 1547 1548 1548 1549 1549 1550 1550 1551 1551 1551 1552 1552 1553 1553 1553 1553 1553
1517 1518 1517 1515 1512 1513 1516 1518 1520 1520 1522 1525 1526 1527 1530 1530 1529 1530 1532 1533 1535 1537 1538 1540 1541 1542 1543 1544 1545 1545 1546 1547 1547 1548 1548 1549 1549 1550 1550 1551 1551 1552 1552 1553 1553 1553 1554 1554 1554
1517 1515 1512 1510 1510 1514 1518 1520 1521 1520 1522 1525 1526 1527 1529 1529 1529 1530 1532 1533 1535 1536 1538 1539 1540 1542 1543 1544 1545 1545 1546 1546 1547 1547 1548 1548 1549 1549 1550 1551 1551 1552 1552 1553 1553 1553 1554 1554 1554
1516 1513 1508 1507 1510 1513 1517 1520 1521 1520 1521 1524 1526 1526 1528 1529 1529 1530 1531 1533 1535 1536 1537 1539 1540 1541 1542 1543 1544 1545 1545 1546 1547 1547 1548 1548 1549 1549 1550 1550 1551 1551 1552 1553 1553 1553 1554 1554 1555
1514 1514 1511 1509 1509 1512 1517 1520 1521 1521 1522 1524 1525 1525 1527 1528 1528 1529 1531 1533 1534 1535 1537 1538 1539 1540 1542 1543 1544 1544 1545 1545 1546 1546 1547 1548 1548 1549 1549 1550 1550 1551 1552 1552 1553 1553 1553 1554 1554
1514 1514 1508 1508 1510 1512 1517 1519 1521 1522 1523 1523 1524 1525 1526 1526 1527 1529 1530 1532 1533 1535 1536 1537 1538 1539 1541 1541 1542 1543 1544 1545 1545 1545 1546 1547 1547 1548 1548 1549 1550 1550 1551 1552 1552 1552 1553 1553 1554
1514 1510 1507 1511 1512 1513 1516 1518 1520 1521 1522 1523 1524 1524 1524 1525 1527 1528 1529 1530 1532 1533 1534 1536 1537 1538 1539 1540 1541 1542 1543 1543 1544 1544 1545 1546 1546 1547 1547 1548 1549 1549 1550 1551 1551 1552 1552 1553 1554
1512 1510 1512 1514 1515 1516 1517 1519 1520 1520 1520 1521 1522 1522 1523 1524 1525 1526 1527 1529 1530 1532 1533 1534 1535 1537 1538 1539 1540 1540 1541 1542 1542 1543 1544 1544 1545 1545 1546 1546 1547 1548 1549 1549 1550 1551 1551 1552 1553
1513 1514 1515 1515 1516 1516 1517 1518 1520 1519 1520 1521 1521 1521 1522 1523 1524 1525 1526 1527 1529 1530 1531 1532 1534 1535 1536 1537 1538 1539 1539 1540 1541 1541 1542 1542 1543 1544 1544 1545 1546 1546 1547 1548 1548 1549 1550 1551 1551
1512 1514 1516 1516 1516 1517 1517 1518 1519 1519 1520 1519 1519 1519 1520 1521 1522 1523 1525 1526 1527 1528 1529 1530 1532 1533 1534 1535 1536 1537 1538 1538 1539 1540 1540 1541 1542 1542 1543 1543 1544 1545 1546 1546 1547 1547 1548 1549 1550
1512 1514 1515 1516 1516 1516 1516 1517 1518 1517 1518 1518 1518 1518 1519 1519 1520 1521 1522 1523 1525 1526 1528 1529 1530 1532 1533 1533 1534 1535 1536 1536 1537 1538 1539 1539 1540 1541 1541 1542 1542 1543 1544 1544 1545 1546 1546 1547 1548
1513 1513 1513 1514 1515 1515 1516 1514 1516 1516 1517 1517 1517 1517 1517 1518 1518 1519 1520 1521 1523 1524 1526 1527 1528 1529 1531 1532 1532 1533 1534 1534 1535 1536 1537 1537 1538 1539 1539 1540 1540 1541 1542 1542 1543 1544 1544 1545 1546
1512 1510 1507 1511 1513 1514 1515 1506 1513 1515 1515 1515 1515 1516 1516 1516 1517 1517 1518 1519 1520 1522 1523 1524 1525 1527 1528 1529 1530 1531 1532 1532 1533 1534 1534 1535 1536 1537 1537 1538 1538 1539 1539 1540 1541 1541 1542 1543 1544
1507 1504 1502 1507 1512 1512 1511 1506 1511 1513 1513 1513 1514 1514 1514 1514 1515 1515 1516 1516 1518 1519 1520 1521 1523 1524 1525 1526 1527 1529 1529 1530 1531 1531 1532 1533 1534 1534 1535 1535 1536 1536 1537 1537 1538 1539 1540 1541 1541
1501 1501 1502 1504 1509 1511 1508 1507 1510 1512 1512 1512 1512 1513 1513 1512 1512 1513 1513 1514 1515 1516 1517 1519 1520 1521 1522 1524 1524 1526 1527 1527 1528 1529 1529 1530 1531 1531 1532 1533 1533 1534 1534 1535 1536 1537 1537 1538 1539
1504 1503 1502 1504 1510 1510 1506 1505 1507 1510 1511 1511 1511 1511 1511 1511 1511 1511 1512 1512 1513 1514 1515 1516 1517 1518 1519 1520 1521 1522 1523 1524 1525 1526 1526 1527 1528 1528 1529 1530 1531 1531 1532 1532 1533 1534 1535 1535 1536
1507 1505 1503 1506 1511 1510 1506 1504 1505 1508 1509 1510 1510 1510 1510 1510 1510 1510 1510 1510 1511 1511 1512 1513 1514 1515 1516 1517 1518 1519 1520 1521 1522 1522 1523 1524 1525 1525 1526 1526 1527 1528 1529 1529 1530 1531 1532 1532 1534
1508 1505 1504 1507 1510 1511 1508 1498 1501 1506 1508 1509 1509 1509 1509 1508 1508 1508 1508 1508 1508 1509 1510 1511 1511 1512 1513 1515 1515 1517 1517 1517 1519 1519 1519 1520 1521 1522 1523 1523 1524 1525 1526 1526 1527 1528 1529 1530 1531
1504 1508 1509 1510 1507 1503 1507 1493 1492 1501 1505 1506 1507 1507 1507 1507 1506 1506 1506 1506 1506 1507 1508 1508 1508 1509 1510 1511 1512 1513 1513 1514 1514 1515 1516 1517 1517 1518 1519 1520 1521 1521 1522 1523 1524 1525 1526 1527 1528
1507 1510 1510 1509 1508 1507 1506 1503 1486 1500 1500 1501 1503 1504 1505 1505 1504 1504 1504 1504 1504 1505 1505 1506 1506 1507 1508 1508 1509 1510 1510 1511 1511 1512 1513 1513 1514 1515 1516 1516 1517 1518 1518 1519 1520 1521 1522 1523 1524
1511 1510 1510 1509 1506 1503 1501 1500 1483 1492 1494 1496 1500 1502 1502 1503 1503 1503 1503 1503 1502 1503 1503 1503 1504 1504 1505 1505 1506 1506 1507 1507 1508 1508 1510 1510 1510 1511 1512 1512 1513 1514 1515 1515 1516 1517 1518 1519 1520
1510 1506 1500 1497 1496 1489 1504 1501 1489 1491 1495 1497 1498 1500 1501 1501 1501 1501 1500 1500 1500 1500 1500 1500 1501 1501 1502 1502 1503 1503 1504 1504 1505 1505 1506 1506 1507 1507 1508 1508 1510 1510 1511 1512 1512 1513 1514 1515 1516
1508 1505 1498 1491 1484 1482 1503 1495 1488 1495 1497 1498 1498 1499 1499 1499 1499 1499 1498 1498 1498 1498 1497 1498 1498 1498 1499 1499 1499 1500 1501 1501 1501 1502 1502 1503 1503 1504 1505 1505 1506 1507 1507 1508 1508 1509 1509 1510 1511
1507 1505 1507 1503 1505 1499 1488 1492 1491 1494 1495 1497 1497 1497 1497 1497 1497 1497 1497 1496 1496 1495 1495 1495 1495 1496 1496 1496 1497 1497 1498 1498 1498 1498 1499 1499 1499 1500 1501 1501 1502 1503 1503 1504 1504 1505 1505 1506 1507
1510 1508 1507 1502 1495 1485 1482 1486 1481 1488 1491 1494 1495 1495 1496 1496 1495 1495 1494 1494 1494 1493 1493 1493 1493 1493 1493 1494 1494 1495 1495 1495 1495 1495 1495 1495 1495 1496 1497 1497 1498 1498 1499 1499 1500 1500 1501 1501 1502
1511 1510 1505 1500 1499 1487 1480 1476 1483 1485 1489 1491 1493 1493 1494 1494 1494 1493 1493 1492 1492 1492 1491 1491 1491 1491 1491 1491 1491 1491 1491 1492 1492 1492 1492 1492 1492 1492 1493 1493 1493 1494 1494 1494 1495 1495 1496 1496 1497
1510 1506 1505 1499 1498 1499 1487 1484 1488 1489 1490 1491 1492 1492 1493 1493 1492 1491 1491 1490 1490 1490 1489 1489 1488 1488 1488 1488 1488 1488 1488 1488 1488 1488 1488 1488 1488 1488 1488 1488 1489 1489 1489 1489 1489 1490 1490 1491 1491